Location: Fort Wayne
(41.1310°N, 85.1290°W)
Time: 21:22:12
(UTC-05:00)

ISS - Visible Passes

Search period start: 25 January 2015 00:00
Search period end: 04 February 2015 00:00
Orbit: 402 x 410 km, 51.6° (Epoch: 25 January)

Date Brightness Start Highest point End Pass type
(mag) Time Alt. Az. Time Alt. Az. Time Alt. Az.
25 Jan -1.4 05:44:50 28° ENE 05:44:50 28° ENE 05:46:59 10° E visible
25 Jan -2.2 07:17:32 11° WNW 07:20:25 31° SW 07:23:23 10° SSE visible
26 Jan -3.2 06:28:04 47° W 06:28:45 61° SW 06:32:00 10° SE visible
27 Jan -1.1 05:38:40 26° ESE 05:38:40 26° ESE 05:40:16 10° ESE visible
27 Jan -1.1 07:11:28 10° W 07:13:08 13° SW 07:14:41 10° SSW visible
28 Jan -1.7 06:22:02 23° SSW 06:22:02 23° SSW 06:24:12 10° S visible
29 Jan -0.2 05:32:47 11° SSE 05:32:47 11° SSE 05:32:56 10° SSE visible
03 Feb -1.4 19:24:16 10° S 19:26:00 18° SSE 19:26:00 18° SSE visible
